Location: Ahausen
(50.4985°N, 8.2722°E)
Time: 11:48:15
(UTC+00:00)

ATLAS 2AS CENTAUR R/B - Pass Details

Date: 18 September 2020
Orbit: 939 x 1273 km, 63.7° (Epoch: 27 October)

Event Time Altitude Azimuth Distance (km) Brightness Sun altitude
Rises 21:02:26 0° 216° (SW) 4,200 5.7 -30.3°
Enters shadow 21:04:49 - 215° (SW) 3,384 5.2 -30.5°
Exits shadow 21:11:57 67° 199° (SSW) 1,368 3.0 -31.3°
Maximum altitude 21:13:10 82° 130° (SE) 1,288 2.9 -31.4°
Drops below altitude 10° 21:21:02 10° 44° (NE) 3,216 5.3 -32.1°
Sets 21:23:46 0° 44° (NE) 4,154 5.9 -32.4°
